Location: Ailly
(50.0793°N, 1.9944°E)
Time: 18:36:54
(UTC+00:00)

AQUARIUS - Pass Details

Date: 15 January 2026
Orbit: 633 x 636 km, 98.0° (Epoch: 17 February)

Event Time Altitude Azimuth Distance (km) Brightness Sun altitude
Rises 06:56:47 0° 12° (NNE) 2,947 7.4 -7.6°
Reaches altitude 10° 06:59:00 10° 11° (N) 2,034 6.6 -7.3°
Maximum altitude 07:03:25 73° 287° (WNW) 668 4.1 -6.7°
Drops below altitude 10° 07:07:48 10° 203° (SSW) 2,016 6.7 -6.0°
Sets 07:09:59 0° 201° (SSW) 2,919 7.6 -5.7°
